Weather History for Bellingham, WA

Change the Weather History Date:

Monday, July 22, 2013

  Actual Average Record
Temperature  
Mean Temperature 66 °F 63 °F  
Max Temperature 75 °F 72 °F 87 °F (1978)
Min Temperature 56 °F 54 °F 46 °F (1966)
Degree Days  
Heating Degree Days 0 2  
Month to date heating degree days 33 67  
Since 1 June heating degree days 168 268  
Cooling Degree Days 1 0  
Month to date cooling degree days 29 0  
Year to date cooling degree days 43 4  
Since 1 June cooling degree days 43 4  
Growing Degree Days 14 (Base 50)    
Moisture  
Dew Point 55 °F    
Average Humidity 73    
Maximum Humidity 93    
Minimum Humidity 53    
Precipitation  
Precipitation 0.00 in 0.03 in 0.63 in (2000)
Month to date precipitation 0.05 0.90  
Year to date precipitation 14.91 18.84  
Sea Level Pressure  
Sea Level Pressure 30.02 in    
Wind  
Wind Speed 7 mph (South)    
Max Wind Speed 16 mph    
Max Gust Speed 21 mph    
Visibility 10 miles    
Events      
T = Trace of Precipitation, MM = Missing Value Source: NWS Daily Summary

Daily Weather History Graph

Daily Weather History Graph

Search for Another Location

Airport:

Trip Planner

Search our weather history database for the weather conditions in past years. The results will help you decide how hot, cold, wet, or windy it might be!

Date:

Astronomy

Jul. 22, 2013 Rise Set
Actual Time 5:31 AM PDT 9:01 PM PDT
Civil Twilight 4:52 AM PDT 9:40 PM PDT
Nautical Twilight 4:00 AM PDT 10:31 PM PDT
Astronomical Twilight 2:48 AM PDT 11:41 PM PDT
Moon 8:41 PM PDT (7/22) 5:40 AM PDT (7/22)
Length of Visible Light 16h 47m
Length of Day
15h 29m
Full, 100% of the Moon is Illuminated
Jul 22
Full
Jul 29
Last Quarter
Aug 6
New
Aug 14
First Quarter
Aug 20
Full

Hourly Weather History & Observations

Time (PDT) Temp. Dew Point Humidity Pressure Visibility Wind Dir Wind Speed Gust Speed Precip Events Conditions
12:53 AM 60.1 °F 54.0 °F 80% 29.95 in 10.0 mi SSE 9.2 mph - N/A   Clear
1:53 AM 59.0 °F 55.0 °F 87% 29.96 in 10.0 mi South 8.1 mph - N/A   Clear
2:53 AM 57.9 °F 55.0 °F 90% 29.96 in 10.0 mi South 9.2 mph - N/A   Clear
3:53 AM 57.0 °F 54.0 °F 89% 29.97 in 10.0 mi South 11.5 mph 17.3 mph N/A   Clear
4:41 AM 55.4 °F 53.6 °F 94% 29.97 in 10.0 mi South 9.2 mph 17.3 mph N/A   Overcast
4:53 AM 55.9 °F 53.1 °F 90% 29.98 in 10.0 mi South 10.4 mph - N/A   Overcast
5:00 AM 55.4 °F 53.6 °F 94% 29.97 in 10.0 mi South 10.4 mph 18.4 mph N/A   Mostly Cloudy
5:53 AM 55.9 °F 53.1 °F 90% 30.00 in 10.0 mi South 15.0 mph 20.7 mph N/A   Overcast
6:53 AM 55.9 °F 53.1 °F 90% 30.01 in 10.0 mi South 11.5 mph 18.4 mph N/A   Overcast
7:11 AM 55.4 °F 53.6 °F 94% 30.00 in 10.0 mi South 9.2 mph 18.4 mph N/A   Overcast
7:53 AM 55.9 °F 54.0 °F 93% 30.03 in 8.0 mi South 10.4 mph - N/A   Overcast
8:53 AM 57.0 °F 54.0 °F 89% 30.05 in 10.0 mi South 9.2 mph - N/A   Overcast
9:53 AM 59.0 °F 55.0 °F 87% 30.06 in 10.0 mi South 10.4 mph - N/A   Overcast
10:13 AM 59.0 °F 55.4 °F 88% 30.05 in 10.0 mi South 9.2 mph - N/A   Overcast
10:41 AM 60.8 °F 55.4 °F 82% 30.05 in 10.0 mi South 10.4 mph - N/A   Overcast
10:53 AM 61.0 °F 55.0 °F 81% 30.07 in 10.0 mi South 9.2 mph - N/A   Overcast
11:53 AM 64.0 °F 55.9 °F 75% 30.07 in 10.0 mi South 9.2 mph - N/A   Mostly Cloudy
12:14 PM 64.4 °F 55.4 °F 73% 30.05 in 10.0 mi South 9.2 mph - N/A   Clear
12:53 PM 64.9 °F 57.0 °F 75% 30.07 in 10.0 mi South 9.2 mph - N/A   Clear
1:53 PM 68.0 °F 57.0 °F 68% 30.07 in 10.0 mi SSE 11.5 mph - N/A   Clear
2:53 PM 70.0 °F 57.9 °F 65% 30.06 in 10.0 mi South 6.9 mph - N/A   Clear
3:53 PM 71.1 °F 57.9 °F 63% 30.06 in 10.0 mi South 6.9 mph - N/A   Clear
4:53 PM 72.0 °F 57.9 °F 61% 30.04 in 10.0 mi South 5.8 mph - N/A   Clear
5:53 PM 73.0 °F 57.9 °F 59% 30.03 in 10.0 mi Calm Calm - N/A   Clear
6:53 PM 73.0 °F 55.9 °F 55% 30.02 in 10.0 mi WNW 3.5 mph - N/A   Clear
7:53 PM 71.1 °F 55.9 °F 59% 30.02 in 10.0 mi West 3.5 mph - N/A   Clear
8:53 PM 64.0 °F 57.0 °F 78% 30.02 in 10.0 mi Calm Calm - N/A   Clear
9:53 PM 60.1 °F 55.9 °F 86% 30.04 in 10.0 mi Calm Calm - N/A   Clear
10:53 PM 60.1 °F 57.0 °F 90% 30.05 in 10.0 mi Calm Calm - N/A   Clear
11:53 PM 60.1 °F 57.0 °F 90% 30.05 in 10.0 mi South 3.5 mph - N/A   Clear